| time (UTC) | temp F | wind direction | speed MPH | gust MPH | rain 1hr in | rain 24hr in | rain mn in | humidity % | barometer mb |
| 20260506224422 | 78 | 295 | 1.0 | 6.0 | 0.00 | 0.00 | 0.00 | 51 | |
| 20260506223932 | 79 | 284 | 1.0 | 5.0 | 0.00 | 0.00 | 0.00 | 49 | |
| 20260506223422 | 79 | 341 | 0.0 | 5.0 | 0.00 | 0.00 | 0.00 | 50 | |
| 20260506222256 | 79 | 162 | 0.0 | 3.0 | 0.00 | 0.00 | 0.00 | 50 | |
| 20260506221800 | 79 | 106 | 0.0 | 3.0 | 0.00 | 0.00 | 0.00 | 49 | |
| 20260506221252 | 79 | 148 | 0.0 | 2.0 | 0.00 | 0.00 | 0.00 | 50 | |
| 20260506220735 | 79 | 134 | 0.0 | 4.0 | 0.00 | 0.00 | 0.00 | 49 | |
| 20260506220236 | 79 | 35 | 0.0 | 4.0 | 0.00 | 0.00 | 0.00 | 51 | |
| 20260506215726 | 79 | 148 | 0.0 | 4.0 | 0.00 | 0.00 | 0.00 | 49 | |
| 20260506215236 | 79 | 97 | 0.0 | 4.0 | 0.00 | 0.00 | 0.00 | 50 | |
| 20260506214741 | 79 | 295 | 0.0 | 5.0 | 0.00 | 0.00 | 0.00 | 51 | |
| 20260506214230 | 79 | 65 | 0.0 | 5.0 | 0.00 | 0.00 | 0.00 | 49 | |
| 20260506213100 | 79 | 159 | 0.0 | 5.0 | 0.00 | 0.00 | 0.00 | 49 | |
| 20260506212549 | 78 | 355 | 0.0 | 2.0 | 0.00 | 0.00 | 0.00 | 50 | |
| 20260506211407 | 78 | 244 | 0.0 | 4.0 | 0.00 | 0.00 | 0.00 | 50 | |
| 20260506210913 | 78 | 40 | 0.0 | 4.0 | 0.00 | 0.00 | 0.00 | 50 | |
| 20260506210405 | 78 | 157 | 0.0 | 4.0 | 0.00 | 0.00 | 0.00 | 49 | |
| 20260506204616 | 77 | 82 | 0.0 | 3.0 | 0.00 | 0.00 | 0.00 | 51 | |
| 20260506204119 | 77 | 67 | 0.0 | 3.0 | 0.00 | 0.00 | 0.00 | 52 | |
| 20260506203617 | 77 | 81 | 0.0 | 3.0 | 0.00 | 0.00 | 0.00 | 52 | |
| 20260506202434 | 77 | 93 | 0.0 | 3.0 | 0.00 | 0.00 | 0.00 | 50 | |
| 20260506201309 | 77 | 67 | 0.0 | 3.0 | 0.00 | 0.00 | 0.00 | 51 | |
| 20260506200818 | 77 | 42 | 0.0 | 3.0 | 0.00 | 0.00 | 0.00 | 50 | |
| 20260506200312 | 77 | 177 | 0.0 | 3.0 | 0.00 | 0.00 | 0.00 | 50 | |
| 20260506195807 | 78 | 144 | 0.0 | 3.0 | 0.00 | 0.00 | 0.00 | 51 | |
| 20260506195301 | 78 | 143 | 0.0 | 3.0 | 0.00 | 0.00 | 0.00 | 50 | |
| 20260506194747 | 78 | 159 | 0.0 | 3.0 | 0.00 | 0.00 | 0.00 | 50 | |
| 20260506194247 | 78 | 88 | 0.0 | 2.0 | 0.00 | 0.00 | 0.00 | 50 | |
| 20260506193738 | 78 | 161 | 0.0 | 5.0 | 0.00 | 0.00 | 0.00 | 51 | |
| 20260506193224 | 77 | 219 | 0.0 | 5.0 | 0.00 | 0.00 | 0.00 | 51 | |
| 20260506192715 | 78 | 70 | 0.0 | 5.0 | 0.00 | 0.00 | 0.00 | 51 | |
| 20260506192219 | 77 | 147 | 0.0 | 5.0 | 0.00 | 0.00 | 0.00 | 52 | |
| 20260506191119 | 77 | 176 | 0.0 | 2.0 | 0.00 | 0.00 | 0.00 | 51 | |
| 20260506190606 | 77 | 260 | 0.0 | 1.0 | 0.00 | 0.00 | 0.00 | 53 | |
| 20260506190050 | 76 | 101 | 0.0 | 2.0 | 0.00 | 0.00 | 0.00 | 53 | |
| 20260506185550 | 76 | 80 | 0.0 | 3.0 | 0.00 | 0.00 | 0.00 | 54 | |
| 20260506185053 | 76 | 315 | 0.0 | 3.0 | 0.00 | 0.00 | 0.00 | 54 | |
| 20260506184556 | 75 | 105 | 0.0 | 2.0 | 0.00 | 0.00 | 0.00 | 54 | |
| 20260506183428 | 74 | 59 | 0.0 | 5.0 | 0.00 | 0.00 | 0.00 | 55 | |
| 20260506182911 | 74 | 294 | 1.0 | 5.0 | 0.00 | 0.00 | 0.00 | 58 | |
| 20260506182415 | 73 | 292 | 2.0 | 5.0 | 0.00 | 0.00 | 0.00 | 56 | |
| 20260506181854 | 73 | 298 | 2.0 | 6.0 | 0.00 | 0.00 | 0.00 | 55 | |
| 20260506181339 | 73 | 299 | 0.0 | 6.0 | 0.00 | 0.00 | 0.00 | 55 | |
| 20260506180843 | 72 | 340 | 1.0 | 6.0 | 0.00 | 0.00 | 0.00 | 56 | |
| 20260506180337 | 72 | 290 | 1.0 | 6.0 | 0.00 | 0.00 | 0.00 | 56 | |
| 20260506174545 | 72 | 278 | 0.0 | 5.0 | 0.00 | 0.00 | 0.00 | 54 | |
| 20260506173418 | 71 | 321 | 0.0 | 4.0 | 0.00 | 0.00 | 0.00 | 56 | |
| 20260506172926 | 70 | 164 | 0.0 | 4.0 | 0.00 | 0.00 | 0.00 | 57 | |
| 20260506172411 | 70 | 337 | 1.0 | 4.0 | 0.00 | 0.00 | 0.00 | 58 | |
| 20260506171917 | 69 | 278 | 1.0 | 5.0 | 0.00 | 0.00 | 0.00 | 58 | |
| 20260506171425 | 69 | 269 | 0.0 | 5.0 | 0.00 | 0.00 | 0.00 | 60 | |
| 20260506170932 | 69 | 289 | 1.0 | 5.0 | 0.00 | 0.00 | 0.00 | 60 | |
| 20260506170412 | 68 | 290 | 0.0 | 5.0 | 0.00 | 0.00 | 0.00 | 61 | |
| 20260506165855 | 68 | 288 | 0.0 | 0.0 | 0.00 | 0.00 | 0.00 | 63 | |
| 20260506165345 | 67 | 303 | 1.0 | 5.0 | 0.00 | 0.00 | 0.00 | 65 | |
| 20260506164851 | 67 | 323 | 1.0 | 5.0 | 0.00 | 0.00 | 0.00 | 65 | |
| 20260506164400 | 66 | 286 | 1.0 | 4.0 | 0.00 | 0.00 | 0.00 | 68 | |
| 20260506163853 | 65 | 286 | 0.0 | 4.0 | 0.00 | 0.00 | 0.00 | 69 | |
| 20260506161500 | 60 | 286 | 0.0 | 2.0 | 0.00 | 0.00 | 0.00 | 88 | |
| 20260506160958 | 59 | 286 | 0.0 | 1.0 | 0.00 | 0.00 | 0.00 | 92 | |
| 20260506160456 | 58 | 286 | 0.0 | 0.0 | 0.00 | 0.00 | 0.00 | 94 | |
| 20260506155942 | 57 | 286 | 0.0 | 0.0 | 0.00 | 0.00 | 0.00 | 95 | |
| 20260506155451 | 56 | 286 | 0.0 | 0.0 | 0.00 | 0.00 | 0.00 | 95 | |
| 20260506155000 | 56 | 286 | 0.0 | 0.0 | 0.00 | 0.00 | 0.00 | 96 | |
| 20260506154503 | 55 | 286 | 0.0 | 0.0 | 0.00 | 0.00 | 0.00 | 96 | |
| 20260506153955 | 54 | 286 | 0.0 | 1.0 | 0.00 | 0.00 | 0.00 | 96 | |
| 20260506153502 | 53 | 286 | 0.0 | 0.0 | 0.00 | 0.00 | 0.00 | 96 | |
| 20260506153011 | 52 | 286 | 0.0 | 0.0 | 0.00 | 0.00 | 0.00 | 96 | |
| 20260506152503 | 51 | 286 | 0.0 | 0.0 | 0.00 | 0.00 | 0.00 | 95 | |
| 20260506151351 | 50 | 286 | 0.0 | 0.0 | 0.00 | 0.00 | 0.00 | 95 | |
| 20260506150850 | 49 | 286 | 0.0 | 0.0 | 0.00 | 0.00 | 0.00 | 95 | |
| 20260506150359 | 49 | 286 | 0.0 | 0.0 | 0.00 | 0.00 | 0.00 | 95 | |
| 20260506145212 | 47 | 286 | 0.0 | 0.0 | 0.00 | 0.00 | 0.00 | 94 | |
| 20260506144050 | 47 | 286 | 0.0 | 0.0 | 0.00 | 0.00 | 0.00 | 94 | |
| 20260506142302 | 46 | 286 | 0.0 | 0.0 | 0.00 | 0.00 | 0.00 | 94 | |
| 20260506141753 | 46 | 286 | 0.0 | 0.0 | 0.00 | 0.00 | 0.00 | 93 | |
| 20260506141300 | 46 | 286 | 0.0 | 0.0 | 0.00 | 0.00 | 0.00 | 93 | |
| 20260506140747 | 45 | 286 | 0.0 | 0.0 | 0.00 | 0.00 | 0.00 | 93 | |
| 20260506140243 | 45 | 286 | 0.0 | 0.0 | 0.00 | 0.00 | 0.00 | 93 | |
| 20260506135738 | 45 | 286 | 0.0 | 0.0 | 0.00 | 0.00 | 0.00 | 93 | |
| 20260506135248 | 45 | 286 | 0.0 | 1.0 | 0.00 | 0.00 | 0.00 | 93 | |
| 20260506134740 | 45 | 286 | 0.0 | 1.0 | 0.00 | 0.00 | 0.00 | 92 | |
| 20260506134236 | 45 | 286 | 0.0 | 0.0 | 0.00 | 0.00 | 0.00 | 92 | |
| 20260506133745 | 45 | 286 | 0.0 | 0.0 | 0.00 | 0.00 | 0.00 | 92 | |
| 20260506133244 | 45 | 286 | 0.0 | 0.0 | 0.00 | 0.00 | 0.00 | 92 | |
| 20260506132733 | 45 | 286 | 0.0 | 0.0 | 0.00 | 0.00 | 0.00 | 92 | |
| 20260506132218 | 45 | 286 | 0.0 | 0.0 | 0.00 | 0.00 | 0.00 | 92 | |
| 20260506131659 | 46 | 286 | 0.0 | 0.0 | 0.00 | 0.00 | 0.00 | 92 | |
| 20260506131205 | 46 | 286 | 0.0 | 0.0 | 0.00 | 0.00 | 0.00 | 92 | |
| 20260506130650 | 46 | 286 | 0.0 | 0.0 | 0.00 | 0.00 | 0.00 | 92 | |
| 20260506130155 | 46 | 286 | 0.0 | 0.0 | 0.00 | 0.00 | 0.00 | 92 | |
| 20260506125017 | 46 | 286 | 0.0 | 0.0 | 0.00 | 0.00 | 0.00 | 92 | |
| 20260506124507 | 46 | 286 | 0.0 | 0.0 | 0.00 | 0.00 | 0.00 | 92 | |
| 20260506123953 | 46 | 286 | 0.0 | 0.0 | 0.00 | 0.00 | 0.00 | 92 | |
| 20260506123436 | 46 | 286 | 0.0 | 0.0 | 0.00 | 0.00 | 0.00 | 92 | |
| 20260506122924 | 46 | 286 | 0.0 | 0.0 | 0.00 | 0.00 | 0.00 | 92 | |
| 20260506121805 | 46 | 286 | 0.0 | 1.0 | 0.00 | 0.00 | 0.00 | 91 | |
| 20260506121307 | 46 | 286 | 0.0 | 0.0 | 0.00 | 0.00 | 0.00 | 91 | |
| 20260506120754 | 46 | 286 | 0.0 | 0.0 | 0.00 | 0.00 | 0.00 | 91 | |
| 20260506120256 | 46 | 286 | 0.0 | 0.0 | 0.00 | 0.00 | 0.00 | 91 | |
| 20260506115742 | 46 | 286 | 0.0 | 0.0 | 0.00 | 0.00 | 0.00 | 91 | |
| 20260506114620 | 46 | 286 | 0.0 | 0.0 | 0.00 | 0.00 | 0.00 | 91 | |
| 20260506114118 | 46 | 286 | 0.0 | 0.0 | 0.00 | 0.00 | 0.00 | 91 | |
| 20260506113558 | 46 | 286 | 0.0 | 0.0 | 0.00 | 0.00 | 0.00 | 91 | |
| 20260506113104 | 46 | 286 | 0.0 | 0.0 | 0.00 | 0.00 | 0.00 | 90 | |
| 20260506111922 | 46 | 286 | 0.0 | 0.0 | 0.00 | 0.00 | 0.00 | 90 | |
| 20260506110804 | 47 | 286 | 0.0 | 0.0 | 0.00 | 0.00 | 0.00 | 91 | |
| 20260506110245 | 47 | 286 | 0.0 | 0.0 | 0.00 | 0.00 | 0.00 | 91 | |
| 20260506105112 | 47 | 286 | 0.0 | 0.0 | 0.00 | 0.00 | 0.00 | 91 | |
| 20260506104605 | 47 | 286 | 0.0 | 0.0 | 0.00 | 0.00 | 0.00 | 91 | |
| 20260506104113 | 47 | 286 | 0.0 | 0.0 | 0.00 | 0.00 | 0.00 | 91 | |
| 20260506103612 | 47 | 286 | 0.0 | 0.0 | 0.00 | 0.00 | 0.00 | 90 | |
| 20260506102425 | 48 | 286 | 0.0 | 0.0 | 0.00 | 0.00 | 0.00 | 90 | |
| 20260506101920 | 48 | 286 | 0.0 | 0.0 | 0.00 | 0.00 | 0.00 | 90 | |
| 20260506100736 | 48 | 286 | 0.0 | 0.0 | 0.00 | 0.00 | 0.00 | 90 | |
| 20260506095550 | 48 | 286 | 0.0 | 0.0 | 0.00 | 0.00 | 0.00 | 90 | |
| 20260506095057 | 48 | 286 | 0.0 | 0.0 | 0.00 | 0.00 | 0.00 | 90 | |
| 20260506094605 | 48 | 286 | 0.0 | 0.0 | 0.00 | 0.00 | 0.00 | 91 | |
| 20260506094101 | 49 | 286 | 0.0 | 0.0 | 0.00 | 0.00 | 0.00 | 91 | |
| 20260506093542 | 49 | 286 | 0.0 | 0.0 | 0.00 | 0.00 | 0.00 | 91 | |
| 20260506093052 | 49 | 286 | 0.0 | 0.0 | 0.00 | 0.00 | 0.00 | 91 | |
| 20260506092601 | 49 | 286 | 0.0 | 0.0 | 0.00 | 0.00 | 0.00 | 90 | |
| 20260506092102 | 49 | 286 | 0.0 | 0.0 | 0.00 | 0.00 | 0.00 | 90 | |
| 20260506091606 | 49 | 286 | 0.0 | 0.0 | 0.00 | 0.00 | 0.00 | 90 | |
| 20260506091110 | 49 | 286 | 0.0 | 1.0 | 0.00 | 0.00 | 0.00 | 90 | |
| 20260506090557 | 49 | 286 | 0.0 | 0.0 | 0.00 | 0.00 | 0.00 | 90 | |
| 20260506085553 | 49 | 286 | 0.0 | 3.0 | 0.00 | 0.00 | 0.00 | 90 | |
| 20260506085054 | 49 | 286 | 0.0 | 0.0 | 0.00 | 0.00 | 0.00 | 89 | |
| 20260506084544 | 49 | 286 | 0.0 | 0.0 | 0.00 | 0.00 | 0.00 | 89 | |
| 20260506084026 | 49 | 286 | 0.0 | 0.0 | 0.00 | 0.00 | 0.00 | 89 | |
| 20260506083522 | 49 | 286 | 0.0 | 0.0 | 0.00 | 0.00 | 0.00 | 89 | |
| 20260506082403 | 50 | 286 | 0.0 | 0.0 | 0.00 | 0.00 | 0.00 | 89 | |
| 20260506081911 | 50 | 286 | 0.0 | 0.0 | 0.00 | 0.00 | 0.00 | 89 | |
| 20260506081357 | 50 | 286 | 0.0 | 0.0 | 0.00 | 0.00 | 0.00 | 89 | |
| 20260506080839 | 50 | 286 | 0.0 | 0.0 | 0.00 | 0.00 | 0.00 | 89 | |
| 20260506080346 | 50 | 286 | 0.0 | 0.0 | 0.00 | 0.00 | 0.00 | 88 | |
| 20260506073358 | 51 | 286 | 0.0 | 0.0 | 0.00 | 0.00 | 0.00 | 88 | |
| 20260506072858 | 51 | 286 | 0.0 | 2.0 | 0.00 | 0.00 | 0.00 | 88 | |
| 20260506072405 | 51 | 286 | 0.0 | 2.0 | 0.00 | 0.00 | 0.00 | 88 | |
| 20260506071250 | 51 | 286 | 0.0 | 0.0 | 0.00 | 0.00 | 0.00 | 87 | |
| 20260506070742 | 51 | 286 | 0.0 | 0.0 | 0.00 | 0.00 | 0.00 | 87 | |
| 20260506070228 | 51 | 286 | 0.0 | 2.0 | 0.00 | 0.00 | 0.00 | 86 | |
| 20260506062030 | 52 | 286 | 0.0 | 0.0 | 0.00 | 0.00 | 0.00 | 84 | |
| 20260506060858 | 53 | 286 | 0.0 | 0.0 | 0.00 | 0.00 | 0.00 | 83 | |
| 20260506060342 | 53 | 286 | 0.0 | 0.0 | 0.00 | 0.00 | 0.00 | 83 | |
| 20260506051135 | 55 | 286 | 0.0 | 0.0 | 0.00 | 0.00 | 0.00 | 83 | |
| 20260506050631 | 55 | 286 | 0.0 | 0.0 | 0.00 | 0.00 | 0.00 | 82 | |
| 20260506050111 | 56 | 286 | 0.0 | 1.0 | 0.00 | 0.00 | 0.00 | 82 | |
| 20260506045059 | 56 | 286 | 0.0 | 0.0 | 0.00 | 0.00 | 0.00 | 82 | |
| 20260506044549 | 56 | 286 | 0.0 | 0.0 | 0.00 | 0.00 | 0.00 | 82 | |
| 20260506044052 | 56 | 286 | 0.0 | 0.0 | 0.00 | 0.00 | 0.00 | 82 | |
| 20260506043542 | 57 | 286 | 0.0 | 0.0 | 0.00 | 0.00 | 0.00 | 82 | |
| 20260506043032 | 57 | 286 | 0.0 | 2.0 | 0.00 | 0.00 | 0.00 | 81 | |
| 20260506042526 | 57 | 286 | 0.0 | 2.0 | 0.00 | 0.00 | 0.00 | 80 | |
| 20260506042037 | 57 | 286 | 0.0 | 0.0 | 0.00 | 0.00 | 0.00 | 80 | |
| 20260506041535 | 58 | 286 | 0.0 | 1.0 | 0.00 | 0.00 | 0.00 | 79 | |
| 20260506041018 | 58 | 286 | 0.0 | 0.0 | 0.00 | 0.00 | 0.00 | 78 | |
| 20260506040512 | 58 | 286 | 0.0 | 0.0 | 0.00 | 0.00 | 0.00 | 77 | |
| 20260506040011 | 58 | 286 | 0.0 | 0.0 | 0.00 | 0.00 | 0.00 | 77 | |
| 20260506035458 | 59 | 286 | 0.0 | 0.0 | 0.00 | 0.00 | 0.00 | 76 | |
| 20260506034956 | 59 | 286 | 0.0 | 0.0 | 0.00 | 0.00 | 0.00 | 76 | |
| 20260506034459 | 59 | 286 | 0.0 | 0.0 | 0.00 | 0.00 | 0.00 | 75 | |
| 20260506033953 | 60 | 286 | 0.0 | 0.0 | 0.00 | 0.00 | 0.00 | 74 | |
| 20260506033436 | 60 | 286 | 0.0 | 0.0 | 0.00 | 0.00 | 0.00 | 74 | |
| 20260506032939 | 61 | 286 | 0.0 | 0.0 | 0.00 | 0.00 | 0.00 | 73 | |
| 20260506032421 | 61 | 286 | 0.0 | 0.0 | 0.00 | 0.00 | 0.00 | 72 | |
| 20260506031927 | 61 | 286 | 0.0 | 0.0 | 0.00 | 0.00 | 0.00 | 73 | |
| 20260506030736 | 62 | 286 | 0.0 | 0.0 | 0.00 | 0.00 | 0.00 | 72 | |
| 20260506030220 | 62 | 286 | 0.0 | 0.0 | 0.00 | 0.00 | 0.00 | 72 | |
| 20260506025722 | 62 | 286 | 0.0 | 2.0 | 0.00 | 0.00 | 0.00 | 71 | |
| 20260506023943 | 64 | 286 | 0.0 | 0.0 | 0.00 | 0.00 | 0.00 | 69 | |
| 20260506023430 | 64 | 286 | 0.0 | 0.0 | 0.00 | 0.00 | 0.00 | 68 | |
| 20260506022244 | 65 | 286 | 0.0 | 0.0 | 0.00 | 0.00 | 0.00 | 66 | |
| 20260506021731 | 65 | 286 | 0.0 | 1.0 | 0.00 | 0.00 | 0.00 | 65 | |
| 20260506021220 | 66 | 286 | 0.0 | 1.0 | 0.00 | 0.00 | 0.00 | 64 | |
| 20260506020717 | 66 | 286 | 0.0 | 0.0 | 0.00 | 0.00 | 0.00 | 64 | |
| 20260506020215 | 67 | 286 | 0.0 | 3.0 | 0.00 | 0.00 | 0.00 | 63 | |
| 20260506015052 | 68 | 286 | 0.0 | 3.0 | 0.00 | 0.00 | 0.00 | 61 | |
| 20260506013940 | 69 | 286 | 0.0 | 4.0 | 0.00 | 0.00 | 0.00 | 59 | |
| 20260506013425 | 69 | 286 | 0.0 | 4.0 | 0.00 | 0.00 | 0.00 | 59 | |
| 20260506012908 | 70 | 286 | 0.0 | 4.0 | 0.00 | 0.00 | 0.00 | 57 | |
| 20260506012410 | 70 | 286 | 0.0 | 0.0 | 0.00 | 0.00 | 0.00 | 55 | |
| 20260506011916 | 70 | 286 | 2.0 | 6.0 | 0.00 | 0.00 | 0.00 | 55 | |
| 20260506011418 | 71 | 286 | 2.0 | 6.0 | 0.00 | 0.00 | 0.00 | 54 | |
| 20260506010911 | 71 | 294 | 2.0 | 6.0 | 0.00 | 0.00 | 0.00 | 53 | |
| 20260506010352 | 72 | 302 | 1.0 | 6.0 | 0.00 | 0.00 | 0.00 | 53 | |
| 20260506005844 | 72 | 301 | 1.0 | 5.0 | 0.00 | 0.00 | 0.00 | 53 | |
| 20260506005345 | 72 | 301 | 2.0 | 5.0 | 0.00 | 0.00 | 0.00 | 54 | |
| 20260506004852 | 72 | 302 | 1.0 | 5.0 | 0.00 | 0.00 | 0.00 | 53 | |
| 20260506004331 | 72 | 316 | 0.0 | 4.0 | 0.00 | 0.00 | 0.00 | 54 | |
| 20260506003215 | 73 | 317 | 1.0 | 4.0 | 0.00 | 0.00 | 0.00 | 52 | |
| 20260506000745 | 70 | 291 | 1.0 | 1.0 | 0.00 | 0.00 | 0.00 | 57 | |
| 20260506000243 | 69 | 291 | 1.0 | 7.0 | 0.00 | 0.00 | 0.00 | 57 | |
| 20260505233825 | 71 | 312 | 0.0 | 3.0 | 0.00 | 0.00 | 0.00 | 53 | |
| 20260505232659 | 71 | 311 | 1.0 | 6.0 | 0.00 | 0.00 | 0.00 | 51 | |
| 20260505232153 | 72 | 348 | 0.0 | 5.0 | 0.00 | 0.00 | 0.00 | 50 | |
| 20260505231656 | 73 | 302 | 0.0 | 5.0 | 0.00 | 0.00 | 0.00 | 49 | |
| 20260505231205 | 73 | 329 | 0.0 | 4.0 | 0.00 | 0.00 | 0.00 | 49 | |
| 20260505230108 | 74 | 111 | 1.0 | 5.0 | 0.00 | 0.00 | 0.00 | 49 | |
| 20260505225552 | 74 | 306 | 1.0 | 5.0 | 0.00 | 0.00 | 0.00 | 49 | |
| 20260505225037 | 74 | 0 | 2.0 | 7.0 | 0.00 | 0.00 | 0.00 | 48 | |
| 20260505224523 | 74 | 293 | 2.0 | 7.0 | 0.00 | 0.00 | 0.00 | 47 |